User: anonymous   Login
Location: Unspecified
(0.0000°N, 0.0000°E)
Time: 10:59:40
(UTC+00:00)
Language:

SLDCOM 1 - Orbit

View from above orbital plane
View from above orbital plane
View from above satellite
View from above satellite

Ground track
Ground track

The orbit data is extracted from the following two-line orbital elements,

1 20641U 90050A   18277.15470779 0.00000000  00000-0  00000-0 0    05
2 20641  63.3155 233.3361 4029750 265.1638  94.8361  6.02584490    06
Epoch (UTC): 04 October 2018 03:42:46
Eccentricity: 0.4029750
inclination: 63.3155°
perigee height: 1237 km
apogee height: 11518 km
right ascension of ascending node: 233.3361°
argument of perigee: 265.1638°
revolutions per day: 6.02584490
mean anomaly at epoch: 94.8361°
orbit number at epoch: 0

The dashed part of the orbit path shows where the satellite is in the earth's shadow,  

DLR